CW3996 Weather Reports


time (UTC)temp
C
wind
direction
speed
KPH
gust
KPH
rain 1hr
cm
rain 24hr
cm
rain mn
cm
humidity
%
barometer
mb
20260507123723 6 133 1.6 3.2 0.00 0.00 0.00 34 1020.2
20260507123218 6 132 1.6 1.6 0.00 0.00 0.00 32 1020.1
20260507122751 6 132 0.0 3.2 0.00 0.00 0.00 32 1020.0
20260507122245 6 132 0.0 8.0 0.00 0.00 0.00 28 1019.9
20260507121718 7 133 3.2 8.0 0.00 0.00 0.00 26 1020.0
20260507121213 8 132 4.8 11.3 0.00 0.00 0.00 25 1019.9
20260507120747 7 132 6.4 11.3 0.00 0.00 0.00 26 1019.9
20260507120246 8 132 3.2 17.7 0.00 0.00 0.00 26 1019.8
20260507115718 9 132 11.3 17.7 0.00 0.00 0.00 25 1019.9
20260507115232 9 132 12.9 17.7 0.00 0.00 0.00 26 1019.9
20260507114726 10 132 11.3 17.7 0.00 0.00 0.00 25 1019.9
20260507114240 10 132 11.3 19.3 0.00 0.00 0.00 25 1020.0
20260507113713 10 132 16.1 19.3 0.00 0.00 0.00 24 1019.9
20260507113228 10 133 11.3 19.3 0.00 0.00 0.00 23 1020.0
20260507112721 10 133 9.7 19.3 0.00 0.00 0.00 25 1020.0
20260507112219 10 133 12.9 19.3 0.00 0.00 0.00 25 1019.8
20260507111713 9 133 12.9 19.3 0.00 0.00 0.00 26 1020.0
20260507111227 9 133 12.9 20.9 0.00 0.00 0.00 26 1020.0
20260507110721 10 133 12.9 20.9 0.00 0.00 0.00 25 1020.1
20260507110217 9 132 14.5 20.9 0.00 0.00 0.00 25 1020.1
20260507105730 10 132 16.1 22.5 0.00 0.00 0.00 26 1020.2
20260507105244 9 127 16.1 22.5 0.00 0.00 0.00 26 1020.3
20260507104717 9 126 14.5 22.5 0.00 0.00 0.00 27 1020.3
20260507104216 9 126 16.1 22.5 0.00 0.00 0.00 26 1020.3
20260507103749 9 120 16.1 20.9 0.00 0.00 0.00 26 1020.4
20260507103222 9 120 16.1 20.9 0.00 0.00 0.00 27 1020.4
20260507102714 9 119 14.5 19.3 0.00 0.00 0.00 27 1020.5
20260507102228 9 119 12.9 17.7 0.00 0.00 0.00 27 1020.6
20260507101722 9 119 9.7 19.3 0.00 0.00 0.00 26 1020.5
20260507101216 9 119 14.5 19.3 0.00 0.00 0.00 26 1020.5
20260507100750 9 119 12.9 17.7 0.00 0.00 0.00 25 1020.6
20260507100224 9 119 11.3 16.1 0.00 0.00 0.00 25 1020.7
20260507095717 9 119 9.7 16.1 0.00 0.03 0.00 25 1020.7
20260507095216 8 119 11.3 16.1 0.00 0.03 0.00 25 1020.7
20260507094730 9 119 12.9 16.1 0.00 0.03 0.00 24 1020.7
20260507094225 9 119 11.3 19.3 0.00 0.03 0.00 26 1020.7
20260507093719 9 119 14.5 20.9 0.00 0.03 0.00 26 1020.7
20260507093213 9 119 16.1 20.9 0.00 0.03 0.00 26 1020.8
20260507092727 9 119 12.9 17.7 0.00 0.03 0.00 26 1020.8
20260507092221 9 119 14.5 17.7 0.00 0.03 0.00 27 1020.8
20260507091719 9 119 12.9 19.3 0.00 0.03 0.00 26 1020.8
20260507091213 9 119 14.5 19.3 0.00 0.03 0.00 27 1020.8
20260507090727 9 119 14.5 19.3 0.00 0.03 0.00 27 1020.8
20260507090222 9 119 16.1 17.7 0.00 0.03 0.00 26 1020.9
20260507085716 9 119 11.3 17.7 0.00 0.03 0.00 26 1020.9
20260507085230 9 119 14.5 19.3 0.00 0.03 0.00 26 1020.8
20260507084724 9 119 14.5 20.9 0.00 0.03 0.00 26 1020.8
20260507084218 10 119 12.9 22.5 0.00 0.03 0.00 26 1020.8
20260507083736 9 119 16.1 22.5 0.00 0.03 0.00 27 1020.8
20260507083229 9 119 16.1 20.9 0.00 0.03 0.00 27 1020.8
20260507082743 9 119 14.5 19.3 0.00 0.03 0.00 27 1020.9
20260507082237 9 119 11.3 19.3 0.00 0.03 0.00 27 1020.9
20260507081730 9 119 14.5 20.9 0.00 0.03 0.00 27 1020.9
20260507081224 9 119 16.1 20.9 0.00 0.03 0.00 27 1020.9
20260507080718 9 119 16.1 22.5 0.00 0.03 0.00 26 1020.9
20260507080214 9 119 16.1 22.5 0.00 0.03 0.00 26 1021.0
20260507075727 10 119 17.7 22.5 0.00 0.03 0.00 26 1021.0
20260507075225 10 119 16.1 22.5 0.00 0.03 0.00 26 1021.0
20260507074738 9 117 17.7 20.9 0.00 0.03 0.00 26 1021.1
20260507074231 9 113 16.1 20.9 0.00 0.03 0.00 27 1021.1
20260507073725 9 113 14.5 20.9 0.00 0.03 0.00 27 1021.2
20260507073239 9 113 16.1 20.9 0.00 0.03 0.00 26 1021.2
20260507072732 9 111 12.9 19.3 0.00 0.03 0.00 26 1021.2
20260507072246 9 111 14.5 19.3 0.00 0.03 0.00 26 1021.3
20260507071718 9 111 14.5 20.9 0.00 0.03 0.00 26 1021.3
20260507071232 10 110 16.1 20.9 0.00 0.03 0.00 26 1021.2
20260507070726 10 110 14.5 19.3 0.00 0.03 0.00 25 1021.3
20260507070226 10 110 12.9 16.1 0.00 0.03 0.00 25 1021.2
20260507065719 10 110 11.3 17.7 0.00 0.03 0.00 25 1021.3
20260507065214 10 110 12.9 17.7 0.00 0.03 0.00 24 1021.3
20260507064727 10 110 9.7 19.3 0.00 0.03 0.00 24 1021.2
20260507064239 10 110 14.5 19.3 0.00 0.03 0.00 25 1021.2
20260507063732 10 110 12.9 20.9 0.00 0.03 0.00 25 1021.2
20260507063226 10 110 16.1 20.9 0.00 0.03 0.00 25 1021.2
20260507062721 10 109 16.1 20.9 0.00 0.03 0.00 24 1021.1
20260507062239 10 101 9.7 19.3 0.00 0.03 0.00 23 1021.1
20260507061732 10 101 14.5 19.3 0.00 0.03 0.00 23 1021.0
20260507061227 10 99 12.9 19.3 0.00 0.03 0.00 22 1021.1
20260507060720 10 98 16.1 19.3 0.00 0.03 0.00 22 1021.0
20260507060216 10 93 9.7 14.5 0.00 0.03 0.00 22 1021.0
20260507055729 10 93 8.0 14.5 0.00 0.03 0.03 22 1021.0
20260507055223 9 93 11.3 12.9 0.00 0.03 0.03 23 1021.0
20260507054717 9 93 4.8 9.7 0.00 0.03 0.03 23 1021.0
20260507054214 9 93 3.2 9.7 0.00 0.03 0.03 23 1021.0
20260507053748 10 93 4.8 11.3 0.00 0.03 0.03 20 1021.0
20260507053241 11 93 9.7 14.5 0.00 0.03 0.03 18 1020.9
20260507052713 11 93 9.7 14.5 0.00 0.03 0.03 18 1021.0
20260507052228 11 93 9.7 14.5 0.00 0.03 0.03 19 1020.9
20260507051721 11 93 9.7 12.9 0.00 0.03 0.03 19 1020.9
20260507051216 11 93 8.0 12.9 0.00 0.03 0.03 19 1020.9
20260507050731 10 93 11.3 14.5 0.00 0.03 0.03 19 1021.0
20260507050226 10 93 9.7 14.5 0.00 0.03 0.03 19 1021.0
20260507045723 10 93 11.3 14.5 0.00 0.03 0.03 19 1021.1
20260507045219 10 93 11.3 14.5 0.00 0.03 0.03 19 1021.0
20260507044712 10 93 8.0 16.1 0.00 0.03 0.03 19 1021.1
20260507044226 10 93 9.7 17.7 0.00 0.03 0.03 19 1021.1
20260507043721 10 93 12.9 17.7 0.00 0.03 0.03 19 1021.1
20260507043215 10 93 11.3 16.1 0.00 0.03 0.03 19 1021.0
20260507042728 10 92 9.7 14.5 0.00 0.03 0.03 19 1020.9
20260507042221 11 93 11.3 14.5 0.00 0.03 0.03 19 1021.0
20260507041719 11 93 11.3 14.5 0.00 0.03 0.03 19 1021.0
20260507041213 10 93 11.3 19.3 0.00 0.03 0.03 20 1021.0
20260507040727 10 93 12.9 19.3 0.00 0.03 0.03 20 1021.0
20260507040243 10 89 14.5 17.7 0.00 0.03 0.03 21 1021.0
20260507035715 10 74 11.3 16.1 0.00 0.03 0.03 21 1021.0
20260507035249 10 73 8.0 14.5 0.00 0.03 0.03 21 1021.0
20260507034721 11 73 8.0 16.1 0.00 0.03 0.03 19 1020.9
20260507034215 11 73 8.0 16.1 0.00 0.03 0.03 19 1020.9
20260507033713 11 63 11.3 16.1 0.00 0.03 0.03 20 1020.9
20260507033227 11 54 8.0 11.3 0.00 0.03 0.03 20 1020.9
20260507032721 11 54 8.0 16.1 0.00 0.03 0.03 19 1020.7
20260507032215 11 54 8.0 16.1 0.00 0.03 0.03 20 1020.7
20260507031748 11 53 9.7 14.5 0.00 0.03 0.03 19 1020.6
20260507030715 11 47 6.4 11.3 0.00 0.03 0.03 19 1020.4
20260507030231 11 47 9.7 14.5 0.00 0.03 0.03 18 1020.4
20260507025725 11 47 8.0 14.5 0.00 0.03 0.03 18 1020.3
20260507025223 11 47 9.7 14.5 0.00 0.03 0.03 18 1020.2
20260507024717 12 44 6.4 9.7 0.00 0.03 0.03 17 1020.2
20260507024251 12 44 0.0 4.8 0.00 0.03 0.03 16 1020.1
20260507023744 12 44 1.6 4.8 0.00 0.03 0.03 17 1020.1
20260507023218 12 44 1.6 6.4 0.00 0.03 0.03 18 1020.1
20260507022731 12 44 0.0 8.0 0.00 0.03 0.03 17 1020.1
20260507022245 13 44 4.8 9.7 0.00 0.03 0.03 16 1020.1
20260507021719 13 44 8.0 11.3 0.00 0.03 0.03 14 1020.1
20260507021213 13 44 8.0 14.5 0.00 0.03 0.03 14 1020.2
20260507020730 14 44 8.0 14.5 0.00 0.03 0.03 13 1020.2
20260507020246 14 44 9.7 14.5 0.00 0.03 0.03 13 1020.1
20260507015718 15 42 8.0 16.1 0.00 0.03 0.03 12 1020.2
20260507015232 15 42 6.4 19.3 0.00 0.03 0.03 12 1020.3
20260507014745 15 42 11.3 19.3 0.00 0.03 0.03 12 1020.3
20260507014219 15 22 8.0 14.5 0.00 0.03 0.03 12 1020.3
20260507013732 16 22 6.4 14.5 0.00 0.03 0.03 12 1020.3
20260507013226 16 22 6.4 24.1 0.00 0.03 0.03 12 1020.3
20260507012720 16 22 6.4 24.1 0.00 0.03 0.03 11 1020.2
20260507012219 16 30 9.7 19.3 0.00 0.03 0.03 11 1020.2
20260507011713 16 31 11.3 20.9 0.00 0.03 0.03 11 1020.1
20260507011248 16 26 12.9 20.9 0.00 0.03 0.03 10 1020.1
20260507010721 16 24 12.9 20.9 0.00 0.03 0.03 11 1020.1
20260507010216 16 28 8.0 20.9 0.00 0.03 0.03 10 1020.1
20260507005730 16 27 9.7 20.9 0.00 0.03 0.03 10 1020.2
20260507005223 16 26 11.3 20.9 0.00 0.03 0.03 10 1020.2
20260507004717 17 24 14.5 24.1 0.00 0.03 0.03 10 1020.1
20260507004230 17 33 8.0 24.1 0.00 0.03 0.03 10 1020.0
20260507003728 17 44 14.5 24.1 0.00 0.03 0.03 11 1020.1
20260507003222 17 30 9.7 24.1 0.00 0.03 0.03 11 1020.1
20260507002717 17 21 17.7 30.6 0.00 0.03 0.03 10 1020.0
20260507002231 17 21 16.1 30.6 0.00 0.03 0.03 11 1019.9
20260507001726 17 36 9.7 22.5 0.00 0.03 0.03 10 1019.9
20260507001221 17 19 11.3 24.1 0.00 0.03 0.03 9 1019.8
20260507000734 17 360 16.1 24.1 0.00 0.03 0.03 12 1019.8
20260507000229 17 49 9.7 24.1 0.00 0.03 0.03 10 1019.7
20260506235742 17 45 14.5 22.5 0.00 0.03 0.03 11 1019.7
20260506235220 17 336 11.3 29.0 0.00 0.03 0.03 9 1019.7
20260506234714 17 26 14.5 30.6 0.00 0.03 0.03 10 1019.8
20260506234228 17 40 17.7 30.6 0.00 0.03 0.03 10 1019.7
20260506233722 18 44 14.5 29.0 0.00 0.03 0.03 9 1019.7
20260506233216 17 40 11.3 29.0 0.00 0.03 0.03 9 1019.7
20260506232730 17 49 14.5 32.2 0.00 0.03 0.03 8 1019.6
20260506232223 18 14 14.5 32.2 0.00 0.03 0.03 9 1019.7
20260506231717 17 17 12.9 32.2 0.00 0.03 0.03 11 1019.5
20260506231215 17 344 12.9 29.0 0.00 0.03 0.03 10 1019.7
20260506230729 17 360 8.0 29.0 0.00 0.03 0.03 11 1019.8
20260506230224 17 41 16.1 27.4 0.00 0.03 0.03 12 1019.8
20260506225718 18 340 12.9 27.4 0.00 0.03 0.03 9 1019.8
20260506225251 18 15 14.5 24.1 0.00 0.03 0.03 11 1019.7
20260506224724 18 5 12.9 27.4 0.00 0.03 0.03 11 1019.7
20260506224218 17 16 12.9 27.4 0.00 0.03 0.03 9 1019.6
20260506223732 18 344 14.5 27.4 0.00 0.03 0.03 10 1019.6
20260506223227 17 9 11.3 27.4 0.00 0.03 0.03 11 1019.6
20260506222724 17 26 14.5 30.6 0.00 0.03 0.03 12 1019.7
20260506222218 18 19 19.3 30.6 0.00 0.03 0.03 9 1019.7
20260506221732 17 30 16.1 30.6 0.00 0.03 0.03 11 1019.7
20260506221226 17 5 17.7 38.6 0.00 0.03 0.03 9 1019.7
20260506220720 18 11 19.3 38.6 0.00 0.03 0.03 10 1019.7
20260506220216 17 18 14.5 33.8 0.00 0.03 0.03 11 1019.7
20260506215730 17 18 17.7 32.2 0.00 0.03 0.03 11 1019.8
20260506215228 17 339 16.1 29.0 0.00 0.03 0.03 12 1019.8
20260506214722 17 13 9.7 27.4 0.00 0.03 0.03 11 1019.9
20260506214216 17 33 12.9 29.0 0.00 0.03 0.03 11 1019.9
20260506213750 17 28 19.3 29.0 0.00 0.03 0.03 10 1020.1
20260506213223 17 319 11.3 25.7 0.00 0.03 0.03 15 1020.2
20260506212716 17 18 12.9 29.0 0.00 0.03 0.03 12 1020.2
20260506212230 17 13 19.3 29.0 0.00 0.03 0.03 10 1020.3
20260506211725 17 327 17.7 30.6 0.00 0.03 0.03 11 1020.2
20260506211223 17 42 17.7 32.2 0.00 0.03 0.03 12 1020.1
20260506210717 17 5 14.5 32.2 0.00 0.03 0.03 12 1020.1
20260506210233 17 14 16.1 30.6 0.00 0.03 0.03 11 1020.1
20260506205726 17 344 16.1 30.6 0.00 0.03 0.03 12 1020.1
20260506205241 17 42 17.7 30.6 0.00 0.03 0.03 11 1020.1
20260506204754 17 322 14.5 29.0 0.00 0.03 0.03 12 1020.1
20260506204227 17 344 17.7 29.0 0.00 0.03 0.03 13 1020.2
20260506203720 17 34 11.3 27.4 0.00 0.03 0.03 10 1020.2
20260506203215 17 344 14.5 30.6 0.00 0.03 0.03 13 1020.2
20260506202733 17 307 17.7 30.6 0.00 0.03 0.03 12 1020.2
20260506202227 17 38 16.1 33.8 0.00 0.03 0.03 12 1020.2
20260506201720 17 32 19.3 35.4 0.00 0.03 0.03 13 1020.1
20260506201253 16 9 19.3 41.8 0.00 0.03 0.03 13 1020.1
20260506200726 16 344 20.9 41.8 0.00 0.03 0.03 12 1020.0
20260506200221 17 331 14.5 32.2 0.00 0.03 0.03 14 1020.2
20260506195715 17 51 17.7 35.4 0.00 0.03 0.03 12 1020.1
20260506195229 16 44 14.5 35.4 0.00 0.03 0.03 14 1020.1
20260506194726 16 342 19.3 35.4 0.00 0.03 0.03 13 1020.2
20260506194221 16 5 17.7 32.2 0.00 0.03 0.03 12 1020.2
20260506193735 16 15 17.7 32.2 0.00 0.03 0.03 12 1020.1
20260506193228 16 344 22.5 41.8 0.00 0.03 0.03 13 1020.0
20260506192721 16 27 20.9 46.7 0.00 0.03 0.03 12 1019.9
20260506192215 16 38 29.0 46.7 0.00 0.03 0.03 11 1019.8
20260506191729 16 35 24.1 40.2 0.00 0.03 0.03 13 1019.9
20260506191223 16 24 27.4 48.3 0.00 0.03 0.03 11 1019.9
20260506190716 16 331 25.7 48.3 0.00 0.03 0.03 12 1019.8
20260506190214 16 19 24.1 41.8 0.00 0.03 0.03 12 1019.9
20260506185728 16 31 29.0 43.5 0.00 0.03 0.03 12 1019.9
20260506185242 16 17 24.1 49.9 0.00 0.03 0.03 13 1019.9
20260506184716 16 59 33.8 49.9 0.00 0.03 0.03 13 1019.9
20260506184251 16 16 19.3 48.3 0.00 0.03 0.03 14 1019.8
20260506183724 17 27 27.4 48.3 0.00 0.03 0.03 13 1019.7
20260506183218 16 11 19.3 37.0 0.00 0.03 0.03 14 1019.8
20260506182731 16 298 9.7 35.4 0.00 0.03 0.03 17 1019.8
20260506182226 16 9 12.9 29.0 0.00 0.03 0.03 17 1020.0
20260506181739 16 344 11.3 33.8 0.00 0.03 0.03 17 1020.0
20260506181217 15 311 24.1 33.8 0.00 0.03 0.03 17 1020.0
20260506180731 15 316 19.3 45.1 0.00 0.03 0.03 19 1019.9
20260506180226 15 315 16.1 45.1 0.00 0.03 0.03 18 1019.9
20260506175719 15 34 16.1 33.8 0.00 0.03 0.03 19 1020.0
20260506175252 14 11 12.9 33.8 0.00 0.03 0.03 18 1020.0
20260506174744 13 319 19.3 37.0 0.00 0.03 0.03 18 1019.9
20260506174218 13 360 24.1 37.0 0.00 0.03 0.03 17 1019.8
20260506173731 13 335 16.1 33.8 0.00 0.03 0.03 16 1019.8
20260506173226 14 41 16.1 38.6 0.00 0.03 0.03 18 1019.7
20260506172723 15 42 20.9 38.6 0.00 0.03 0.03 15 1019.5
20260506172217 15 42 17.7 33.8 0.00 0.03 0.03 15 1019.5
20260506171731 15 360 11.3 30.6 0.00 0.03 0.03 17 1019.4
20260506171225 14 360 14.5 30.6 0.00 0.03 0.03 18 1019.4
20260506170719 14 45 16.1 29.0 0.00 0.03 0.03 20 1019.4
20260506170236 14 344 16.1 29.0 0.00 0.03 0.03 19 1019.3
20260506165728 14 9 14.5 32.2 0.00 0.03 0.03 19 1019.1
20260506165222 14 33 12.9 37.0 0.00 0.03 0.03 22 1019.1
20260506164720 13 28 22.5 40.2 0.00 0.03 0.03 18 1019.0
20260506164214 13 338 20.9 40.2 0.00 0.03 0.03 19 1019.0
20260506163727 13 327 22.5 33.8 0.00 0.03 0.03 19 1019.0
20260506163222 13 5 20.9 30.6 0.00 0.03 0.03 20 1018.9
20260506162715 13 36 8.0 24.1 0.00 0.03 0.03 32 1018.8
20260506162230 13 36 12.9 27.4 0.00 0.03 0.03 33 1018.8
20260506161743 12 37 11.3 27.4 0.00 0.03 0.03 34 1018.8
20260506161217 12 30 8.0 20.9 0.00 0.03 0.03 34 1018.8
20260506160715 11 37 12.9 24.1 0.00 0.03 0.03 35 1018.8
20260506160229 10 39 14.5 24.1 0.00 0.03 0.03 35 1018.7
20260506155722 10 54 14.5 22.5 0.00 0.03 0.03 33 1018.7
20260506155217 10 71 14.5 20.9 0.00 0.03 0.03 36 1018.7
20260506154751 10 91 9.7 19.3 0.00 0.03 0.03 38 1018.6
20260506154224 10 92 9.7 19.3 0.00 0.03 0.03 39 1018.6
20260506153716 10 95 8.0 17.7 0.00 0.03 0.03 42 1018.5
20260506153231 10 96 8.0 14.5 0.00 0.03 0.03 45 1018.5
20260506152745 10 96 8.0 14.5 0.00 0.03 0.03 44 1018.4
20260506152222 10 95 4.8 14.5 0.00 0.03 0.03 47 1018.3
20260506151716 10 95 4.8 17.7 0.00 0.03 0.03 48 1018.3
20260506151230 10 96 11.3 17.7 0.00 0.03 0.03 46 1018.1
20260506150724 10 96 9.7 16.1 0.00 0.03 0.03 49 1018.1
20260506150240 10 96 9.7 17.7 0.00 0.03 0.03 47 1018.0
20260506145732 10 96 11.3 17.7 0.00 0.03 0.03 49 1017.9
20260506145227 10 96 11.3 17.7 0.00 0.03 0.03 49 1017.8
20260506144720 10 97 11.3 17.7 0.00 0.03 0.03 50 1017.8
20260506144235 10 101 6.4 16.1 0.00 0.03 0.03 53 1017.6
20260506143732 10 102 9.7 16.1 0.00 0.03 0.03 51 1017.6
20260506143225 10 103 6.4 14.5 0.00 0.03 0.03 51 1017.5
20260506142719 10 103 8.0 14.5 0.00 0.03 0.03 50 1017.4
20260506142214 10 103 8.0 14.5 0.00 0.03 0.03 51 1017.3
20260506141727 10 103 6.4 14.5 0.00 0.03 0.03 52 1017.3
20260506141221 10 103 6.4 12.9 0.00 0.03 0.03 54 1017.3
20260506140735 9 103 6.4 12.9 0.00 0.03 0.03 54 1017.2
20260506140250 9 103 6.4 12.9 0.00 0.03 0.03 56 1017.1
20260506135723 9 103 3.2 9.7 0.00 0.03 0.03 59 1017.0
20260506135221 8 103 4.8 9.7 0.00 0.03 0.03 61 1016.9
20260506134715 8 103 4.8 11.3 0.00 0.03 0.03 62 1016.9
20260506134229 8 103 6.4 11.3 0.00 0.03 0.03 65 1016.9
20260506133744 8 103 3.2 12.9 0.00 0.03 0.03 67 1016.8
20260506133217 7 103 3.2 12.9 0.00 0.03 0.03 67 1016.7
20260506132730 7 103 3.2 9.7 0.00 0.03 0.03 68 1016.6
20260506132225 7 103 3.2 9.7 0.00 0.03 0.03 68 1016.6
20260506131718 7 103 1.6 9.7 0.00 0.03 0.03 68 1016.5
20260506131236 7 103 4.8 9.7 0.00 0.03 0.03 67 1016.4
20260506130729 7 103 3.2 6.4 0.00 0.03 0.03 67 1016.4
20260506130224 7 103 3.2 9.7 0.00 0.03 0.03 66 1016.2
20260506125717 8 103 4.8 9.7 0.00 0.03 0.03 64 1016.1
20260506125251 8 103 4.8 9.7 0.00 0.03 0.03 63 1016.0
20260506124724 8 103 4.8 12.9 0.00 0.03 0.03 62 1015.9